Milford, UT

9:25 PM MDT on August 31, 2016 (GMT -0600)
Milford Municipal

Weather History for KMLF - December, 2013

Change the Weather History Date:

Saturday, December 7, 2013

  Actual Average Record
Temperature  
Mean Temperature 12 °F -  
Max Temperature 28 °F 41 °F 57 °F (2014)
Min Temperature -4 °F 18 °F -4 °F (2013)
Degree Days  
Heating Degree Days 53    
Moisture  
Dew Point 21 °F    
Average Humidity 89    
Maximum Humidity 93    
Minimum Humidity 55    
Precipitation  
Precipitation 0.04 in - - ()
Sea Level Pressure  
Sea Level Pressure 29.76 in    
Wind  
Wind Speed 14 mph (SSW)    
Max Wind Speed 23 mph    
Max Gust Speed 29 mph    
Visibility 4 miles    
Events Snow    
Averages and records for this station are not official NWS values.
T = Trace of Precipitation, MM = Missing Value Source: NWS Daily Summary

Daily Weather History Graph

Daily Weather History Graph

Search for Another Location

Airport or City:

Trip Planner

Search our weather history database for the weather conditions in past years. The results will help you decide how hot, cold, wet, or windy it might be!

Date:

Astronomy

Dec. 07, 2013 Rise Set
Actual Time 7:36 AM MST 5:11 PM MST
Civil Twilight 7:06 AM MST 5:40 PM MST
Nautical Twilight 6:33 AM MST 6:13 PM MST
Astronomical Twilight 6:01 AM MST 6:45 PM MST
Moon 11:26 AM MST (12/7) 10:54 PM MST (12/7)
Length of Visible Light 10h 33m
Length of Day
9h 34m
Waxing Crescent, 30% of the Moon is Illuminated
Dec 7
Waxing Crescent
Dec 9
First Quarter
Dec 17
Full
Dec 25
Last Quarter
Jan 1
New

Hourly Weather History & Observations

Time (MST) Temp. Windchill Dew Point Humidity Pressure Visibility Wind Dir Wind Speed Gust Speed Precip Events Conditions
12:52 AM 21.0 °F 8.6 °F 16.0 °F 81% 30.09 in 3.0 mi SSW 12.7 mph - 0.00 in Snow Light Snow
12:56 AM 19.9 °F 7.9 °F 16.0 °F 85% 29.94 in 2.5 mi SSW 11.5 mph - 0.00 in Snow Light Snow
1:19 AM 19.9 °F 6.2 °F 16.0 °F 85% 29.92 in 3.0 mi SSW 15.0 mph - 0.00 in Snow Light Snow
1:41 AM 19.0 °F 5.0 °F 16.0 °F 88% 29.90 in 3.0 mi SSW 15.0 mph - 0.00 in Snow Light Snow
1:52 AM 19.0 °F 5.6 °F 16.0 °F 88% 30.03 in 2.5 mi SSW 13.8 mph - 0.00 in Snow Light Snow
2:00 AM 19.0 °F 5.6 °F 17.1 °F 92% 29.89 in 3.0 mi SSW 13.8 mph - 0.00 in Snow Light Snow
2:17 AM 19.0 °F 6.8 °F 17.1 °F 92% 29.89 in 4.0 mi SSW 11.5 mph - 0.00 in Snow Light Snow
2:52 AM 21.0 °F 8.1 °F 18.0 °F 88% 29.99 in 4.0 mi SSW 13.8 mph - 0.00 in Snow Light Snow
2:59 AM 21.0 °F 7.1 °F 18.0 °F 88% 29.86 in 4.0 mi SSW 16.1 mph - 0.00 in Snow Light Snow
3:25 AM 21.0 °F 8.1 °F 18.0 °F 88% 29.85 in 8.0 mi SW 13.8 mph - 0.00 in   Overcast
3:52 AM 21.0 °F 7.6 °F 18.0 °F 88% 29.95 in 10.0 mi SSW 15.0 mph - 0.00 in   Overcast
4:52 AM 21.0 °F 6.6 °F 18.0 °F 88% 29.91 in 3.0 mi SSW 17.3 mph - 0.00 in Snow Light Snow
5:02 AM 21.0 °F 6.6 °F 19.0 °F 92% 29.79 in 2.5 mi SSW 17.3 mph - 0.00 in Snow Light Snow
5:12 AM 21.0 °F 7.1 °F 19.0 °F 92% 29.78 in 1.8 mi SSW 16.1 mph - 0.01 in Snow Light Snow
5:18 AM 21.0 °F 7.6 °F 19.0 °F 92% 29.77 in 2.0 mi SSW 15.0 mph - 0.01 in Snow Light Snow
5:27 AM 21.0 °F 7.1 °F 18.0 °F 88% 29.76 in 4.0 mi SSW 16.1 mph - 0.01 in Snow Light Snow
5:38 AM 21.0 °F 7.1 °F 18.0 °F 88% 29.76 in 1.8 mi SW 16.1 mph - 0.01 in Snow Light Snow
5:52 AM 21.0 °F 6.6 °F 18.0 °F 88% 29.88 in 1.0 mi SSW 17.3 mph - 0.01 in Snow Light Snow
6:01 AM 21.0 °F 7.1 °F 18.0 °F 88% 29.75 in 1.8 mi SSW 16.1 mph - 0.00 in Snow Light Snow
6:05 AM 21.0 °F 6.2 °F 18.0 °F 88% 29.74 in 2.0 mi SSW 18.4 mph - 0.00 in Snow Light Snow
6:13 AM 19.9 °F 4.8 °F 18.0 °F 92% 29.74 in 3.0 mi SW 18.4 mph - 0.00 in Snow Light Snow
6:44 AM 21.0 °F 5.0 °F 19.0 °F 92% 29.71 in 2.5 mi SSW 21.9 mph - 0.00 in Snow Light Snow
6:52 AM 21.0 °F 5.4 °F 19.0 °F 92% 29.83 in 2.5 mi SSW 20.7 mph - 0.00 in Snow Light Snow
7:07 AM 21.0 °F 5.7 °F 19.0 °F 92% 29.71 in 4.0 mi SW 19.6 mph - 0.00 in Snow Light Snow
7:17 AM 21.0 °F 6.2 °F 19.0 °F 92% 29.72 in 9.0 mi SW 18.4 mph - 0.00 in   Overcast
7:25 AM 21.0 °F 6.2 °F 19.0 °F 92% 29.72 in 8.0 mi SW 18.4 mph - 0.00 in Snow Light Snow
7:46 AM 21.0 °F 7.1 °F 19.0 °F 92% 29.71 in 2.5 mi SW 16.1 mph - 0.00 in Snow Light Snow
7:52 AM 21.0 °F 6.6 °F 19.0 °F 92% 29.82 in 3.0 mi SW 17.3 mph - 0.00 in Snow Light Snow
8:17 AM 21.9 °F 6.2 °F 19.0 °F 89% 29.71 in 5.0 mi SSW 21.9 mph - 0.01 in Snow Light Snow
8:47 AM 21.9 °F 7.8 °F 19.9 °F 92% 29.72 in 1.8 mi SSW 17.3 mph - 0.01 in Snow Light Snow
8:50 AM 21.2 °F 6.8 °F 19.4 °F 93% 29.72 in 1.5 mi SSW 17.3 mph - 0.01 in Snow Light Snow
8:52 AM 21.9 °F 6.5 °F 19.9 °F 92% 29.83 in 1.5 mi SSW 20.7 mph - 0.01 in Snow Light Snow
9:08 AM 23.0 °F 8.3 °F 19.9 °F 88% 29.72 in 1.8 mi South 19.6 mph - 0.00 in Snow Light Snow
9:17 AM 23.0 °F 8.7 °F 21.0 °F 92% 29.72 in 1.8 mi South 18.4 mph - 0.00 in Snow Light Snow
9:24 AM 23.0 °F 10.6 °F 21.0 °F 92% 29.71 in 3.0 mi South 13.8 mph - 0.00 in Snow Light Snow
9:28 AM 23.0 °F 11.7 °F 21.0 °F 92% 29.71 in 2.0 mi South 11.5 mph - 0.00 in Snow Light Snow
9:30 AM 23.0 °F 11.7 °F 21.0 °F 92% 29.72 in 1.5 mi South 11.5 mph - 0.00 in Snow Light Snow
9:35 AM 24.1 °F 12.0 °F 21.0 °F 88% 29.72 in 1.2 mi SSW 13.8 mph - 0.00 in Snow Light Snow
9:39 AM 24.1 °F 12.5 °F 21.0 °F 88% 29.72 in 1.8 mi SSW 12.7 mph - 0.00 in Snow Light Snow
9:44 AM 24.1 °F 11.5 °F 21.0 °F 88% 29.72 in 3.0 mi SSW 15.0 mph - 0.00 in Snow Light Snow
9:52 AM 24.1 °F 9.8 °F 21.0 °F 88% 29.82 in 3.0 mi SSW 19.6 mph - 0.00 in Snow Light Snow
9:57 AM 25.0 °F 9.9 °F 21.0 °F 85% 29.72 in 1.8 mi SSW 23.0 mph 27.6 mph 0.00 in Snow Light Snow
10:01 AM 25.0 °F 10.6 °F 21.9 °F 88% 29.71 in 1.2 mi SSW 20.7 mph 28.8 mph 0.00 in Snow Light Snow
10:07 AM 25.0 °F 10.6 °F 21.9 °F 88% 29.71 in 1.8 mi SSW 20.7 mph 28.8 mph 0.00 in Snow Light Snow
10:12 AM 25.0 °F 12.6 °F 21.9 °F 88% 29.71 in 2.5 mi SSW 15.0 mph - 0.00 in Snow Light Snow
10:37 AM 25.0 °F 12.2 °F 21.9 °F 88% 29.71 in 4.0 mi SSW 16.1 mph - 0.00 in Snow Light Snow
10:52 AM 26.1 °F 14.0 °F 21.9 °F 84% 29.79 in 2.5 mi SSW 15.0 mph - 0.00 in Snow Light Snow
10:57 AM 26.1 °F 13.1 °F 21.9 °F 84% 29.71 in 3.0 mi SSW 17.3 mph - 0.00 in Snow Light Snow
11:10 AM 26.1 °F 11.6 °F 23.0 °F 88% 29.71 in 2.0 mi SSW 21.9 mph - 0.00 in Snow Light Snow
11:13 AM 26.1 °F 13.1 °F 23.0 °F 88% 29.71 in 1.5 mi SSW 17.3 mph - 0.00 in Snow Light Snow
11:15 AM 26.1 °F 12.3 °F 23.0 °F 88% 29.71 in 1.2 mi SSW 19.6 mph - 0.00 in Snow Light Snow
11:25 AM 26.1 °F 12.3 °F 23.0 °F 88% 29.70 in 0.8 mi SSW 19.6 mph - 0.00 in Snow Light Snow
11:52 AM 26.1 °F 14.0 °F 24.1 °F 92% 29.78 in 0.8 mi SSW 15.0 mph - 0.01 in Snow Light Snow
11:57 AM 26.1 °F 14.5 °F 24.1 °F 92% 29.69 in 1.2 mi SSW 13.8 mph - 0.00 in Snow Light Snow
11:59 AM 26.1 °F 15.6 °F 24.1 °F 92% 29.69 in 1.8 mi SSW 11.5 mph - 0.00 in Snow Light Snow
12:04 PM 26.1 °F 15.0 °F 24.1 °F 92% 29.69 in 2.5 mi South 12.7 mph - 0.00 in Snow Light Snow
12:10 PM 26.1 °F 15.0 °F 24.1 °F 92% 29.69 in 1.8 mi South 12.7 mph - 0.00 in Snow Light Snow
12:17 PM 26.1 °F 15.0 °F 24.1 °F 92% 29.68 in 1.5 mi South 12.7 mph - 0.00 in Snow Light Snow
12:23 PM 26.1 °F 13.6 °F 24.1 °F 92% 29.67 in 1.2 mi SSW 16.1 mph - 0.00 in Snow Light Snow
12:29 PM 26.1 °F 14.0 °F 24.1 °F 92% 29.67 in 1.5 mi South 15.0 mph - 0.00 in Snow Light Snow
12:37 PM 26.1 °F 14.5 °F 24.1 °F 92% 29.66 in 1.0 mi South 13.8 mph - 0.00 in Snow Light Snow
12:44 PM 26.1 °F 14.5 °F 24.1 °F 92% 29.66 in 1.0 mi South 13.8 mph - 0.00 in Snow Light Snow
12:52 PM 26.1 °F 14.0 °F 24.1 °F 92% 29.73 in 1.0 mi South 15.0 mph - 0.00 in Snow Light Snow
1:09 PM 26.1 °F 13.6 °F 24.1 °F 92% 29.65 in 0.8 mi South 16.1 mph - 0.01 in Snow Light Snow
1:38 PM 26.1 °F 15.0 °F 24.1 °F 92% 29.64 in 1.0 mi South 12.7 mph - 0.01 in Snow Light Snow
1:52 PM 27.0 °F 18.0 °F 25.0 °F 92% 29.73 in 1.5 mi South 9.2 mph - 0.02 in Snow Light Snow
1:57 PM 27.0 °F 17.3 °F 25.0 °F 92% 29.64 in 1.8 mi South 10.4 mph - 0.00 in Snow Light Snow
2:04 PM 27.0 °F 17.3 °F 25.0 °F 92% 29.64 in 2.0 mi South 10.4 mph - 0.00 in Snow Light Snow
2:11 PM 27.0 °F 17.3 °F 25.0 °F 92% 29.63 in 2.5 mi South 10.4 mph - 0.00 in Snow Light Snow
2:13 PM 27.0 °F 18.0 °F 25.0 °F 92% 29.63 in 3.0 mi SSE 9.2 mph - 0.00 in Snow Light Snow
2:23 PM 27.0 °F 15.6 °F 24.1 °F 89% 29.63 in 4.0 mi South 13.8 mph 19.6 mph 0.00 in Snow Light Snow
2:37 PM 27.0 °F 18.7 °F 24.1 °F 89% 29.63 in 8.0 mi SSE 8.1 mph - 0.00 in   Overcast
2:52 PM 27.0 °F 17.3 °F 24.1 °F 89% 29.70 in 5.0 mi South 10.4 mph - 0.00 in Snow Light Snow
3:52 PM 27.0 °F 15.2 °F 24.1 °F 89% 29.71 in 10.0 mi South 15.0 mph - 0.00 in   Overcast
4:27 PM 27.0 °F 17.3 °F 24.1 °F 89% 29.64 in 3.0 mi SSW 10.4 mph - 0.00 in Snow Light Snow
4:29 PM 27.0 °F 17.3 °F 24.1 °F 89% 29.64 in 1.8 mi SSW 10.4 mph - 0.00 in Snow Light Snow
4:34 PM 27.0 °F 16.7 °F 24.1 °F 89% 29.64 in 1.0 mi SSW 11.5 mph - 0.00 in Snow Light Snow
4:36 PM 27.0 °F 16.7 °F 24.1 °F 89% 29.64 in 0.8 mi SSW 11.5 mph - 0.00 in Snow Light Snow
4:43 PM 27.0 °F 17.3 °F 24.1 °F 89% 29.64 in 1.0 mi South 10.4 mph - 0.01 in Snow Light Snow
4:50 PM 26.6 °F 16.8 °F 24.8 °F 93% 29.64 in 1.5 mi South 10.4 mph - 0.01 in Snow Light Snow
4:52 PM 27.0 °F 17.3 °F 24.1 °F 89% 29.72 in 2.5 mi South 10.4 mph - 0.01 in Snow Light Snow
4:57 PM 26.1 °F 16.2 °F 24.1 °F 92% 29.65 in 8.0 mi South 10.4 mph - 0.00 in   Overcast
5:52 PM 23.0 °F 14.7 °F 21.0 °F 92% 29.75 in 10.0 mi South 6.9 mph - 0.00 in   Scattered Clouds
6:52 PM 19.9 °F 9.3 °F 17.1 °F 89% 29.80 in 10.0 mi WSW 9.2 mph - N/A   Partly Cloudy
7:52 PM 18.0 °F - 9.0 °F 68% 29.83 in 10.0 mi Calm Calm - N/A   Clear
8:46 PM 21.0 °F 11.4 °F 17.1 °F 85% 29.77 in 8.0 mi North 8.1 mph - 0.00 in Snow Light Snow
8:52 PM 21.9 °F 12.5 °F 17.1 °F 82% 29.86 in 7.0 mi NNW 8.1 mph - 0.00 in Snow Light Snow
9:03 PM 21.9 °F 11.0 °F 18.0 °F 85% 29.78 in 1.8 mi NNW 10.4 mph - 0.00 in Snow Light Snow
9:12 PM 21.9 °F 12.5 °F 18.0 °F 85% 29.78 in 3.0 mi North 8.1 mph - 0.00 in Snow Light Snow
9:34 PM 21.0 °F 11.4 °F 18.0 °F 88% 29.79 in 10.0 mi North 8.1 mph - 0.00 in   Overcast
9:52 PM 21.0 °F 14.6 °F 18.0 °F 88% 29.89 in 10.0 mi North 4.6 mph - 0.00 in   Overcast
10:17 PM 19.9 °F 13.4 °F 17.1 °F 89% 29.80 in 10.0 mi ESE 4.6 mph - N/A   Overcast
10:52 PM 19.9 °F 14.9 °F 18.0 °F 92% 29.90 in 10.0 mi ESE 3.5 mph - 0.00 in   Overcast
11:52 PM 18.0 °F 9.8 °F 16.0 °F 92% 29.92 in 10.0 mi WSW 5.8 mph - N/A   Overcast